TimeCDT,TemperatureF,Dew PointF,Humidity,Sea Level PressureIn,VisibilityMPH,Wind Direction,Wind SpeedMPH,Gust SpeedMPH,PrecipitationIn,Events,Conditions,WindDirDegrees,DateUTC
12:53 AM,39.9,21.9,49,30.13,10.0,WNW,8.1,-,N/A,,Clear,300,2012-04-09 05:53:00
1:53 AM,41.0,21.0,45,30.14,10.0,WNW,6.9,-,N/A,,Clear,290,2012-04-09 06:53:00
2:53 AM,39.0,19.9,46,30.13,10.0,West,5.8,-,N/A,,Clear,280,2012-04-09 07:53:00
3:53 AM,37.0,19.9,50,30.14,10.0,West,5.8,-,N/A,,Clear,280,2012-04-09 08:53:00
4:53 AM,36.0,19.9,52,30.13,10.0,West,5.8,-,N/A,,Clear,280,2012-04-09 09:53:00
5:53 AM,35.1,19.9,54,30.14,10.0,WNW,9.2,-,N/A,,Clear,300,2012-04-09 10:53:00
6:53 AM,33.1,19.9,59,30.15,10.0,WNW,6.9,-,N/A,,Clear,290,2012-04-09 11:53:00
7:53 AM,39.0,21.9,50,30.16,10.0,WNW,6.9,-,N/A,,Clear,290,2012-04-09 12:53:00
8:53 AM,46.9,24.1,41,30.16,10.0,WNW,8.1,-,N/A,,Clear,300,2012-04-09 13:53:00
9:53 AM,53.1,26.1,35,30.16,10.0,NW,13.8,-,N/A,,Clear,310,2012-04-09 14:53:00
10:53 AM,55.9,26.1,32,30.16,10.0,NW,16.1,20.7,N/A,,Clear,320,2012-04-09 15:53:00
11:53 AM,59.0,24.1,26,30.15,10.0,WNW,15.0,32.2,N/A,,Clear,290,2012-04-09 16:53:00
12:53 PM,61.0,23.0,23,30.14,10.0,NW,21.9,33.4,N/A,,Clear,320,2012-04-09 17:53:00
1:53 PM,63.0,23.0,22,30.12,10.0,NW,25.3,35.7,N/A,,Clear,310,2012-04-09 18:53:00
2:53 PM,63.0,23.0,22,30.10,10.0,WNW,27.6,32.2,N/A,,Clear,300,2012-04-09 19:53:00
4:53 PM,62.1,19.0,19,30.07,10.0,NW,25.3,34.5,N/A,,Clear,310,2012-04-09 21:53:00
5:53 PM,61.0,17.1,18,30.07,10.0,NW,18.4,34.5,N/A,,Clear,310,2012-04-09 22:53:00
6:53 PM,57.0,16.0,20,30.08,10.0,NW,23.0,32.2,N/A,,Clear,320,2012-04-09 23:53:00
7:53 PM,53.1,17.1,24,30.09,10.0,NW,16.1,-,N/A,,Clear,320,2012-04-10 00:53:00
8:53 PM,48.9,19.0,31,30.12,10.0,NNW,12.7,-,N/A,,Clear,340,2012-04-10 01:53:00
9:53 PM,45.0,19.0,36,30.14,10.0,NNW,12.7,-,N/A,,Clear,340,2012-04-10 02:53:00
10:53 PM,41.0,19.0,41,30.16,10.0,NNW,10.4,-,N/A,,Clear,340,2012-04-10 03:53:00
11:53 PM,37.9,19.0,47,30.18,10.0,North,9.2,-,N/A,,Clear,350,2012-04-10 04:53:00